{"data":{"norad_id":59169,"intl_designator":"2024-044T","name":"STARLINK-31329","alt_names":[],"object_type":"PAYLOAD","status":"ACTIVE","operator":null,"country":"US","launch_date":"2024-03-04","launch_site_code":"AFETR","launch_vehicle":null,"mission":null,"orbit_class":"UNKNOWN","rcs_meters":null,"size_class":null,"mass_kg":null,"dimensions":null,"purposes":["comms"],"wikipedia_slug":null,"has_3d_model":false,"image_url":null,"decayed_at":null,"tle_current":{"epoch":"2026-09-19T21:23:40.795296Z","epoch_age_seconds":211435,"freshness":"STALE","line1":"1 59169U 24044T   26262.89144439 -.00001028  00000+0 -27839-4 0  9999","line2":"2 59169  43.0044  90.4969 0001131 275.0549  85.0174 15.27573101143265","mean_motion":15.27573101,"eccentricity":0.0001131,"inclination_deg":43.0044,"raan_deg":90.4969,"arg_perigee_deg":275.0549,"mean_anomaly_deg":85.0174,"bstar":-2.7839e-5,"rev_number":14326,"period_min":94.267174451902,"perigee_km":482.2937517214,"apogee_km":483.8457566892,"semimajor_km":6861.2067542053,"source":"CELESTRAK","updated_at":"2026-09-21T09:00:34.059893Z"}}}